Content
SEND FEEDBACK

Daily
Averages
Monthly
Summary
United States of America

ST. LOUIS, MISSOURI


Home > North America > United States > Missouri
Elevation: 163 meters     Latitude: 38 45N     Longitude: 090 22W

WEATHER
 
SELECT A DAY
Number of Records: 200,654;   Date Range: 1/1/95 - 11/27/14
 
SHARE

PRINT THIS DATA

[ ← Previous Day ]
WEATHER ALMANAC - 29 APRIL, 2013
[ Next Day → ]
[ °F ]   °C
Weather ElementAverageHighLow
Temperature11.8 °C27.8 °C (4:54 pm)5 °C (5:19 am)
Dewpoint7.7 °C15 °C (11:54 pm)4 °C (3:03 am)
Humidity79.8 %100 % (1:25 am)38 % (3:54 pm)
Barometer1011.9 hPa1013.9 hPa (7:54 am)1007.5 hPa (4:54 pm)
Wind Speed4.3 km/h18.5 km/h (1:54 pm)
Wind Gust31.5 km/h (10:54 pm)
Weather ElementAverage
Visibility6.8 km
Wind DirectionNE (46.8 °)

Weather ElementTotal
Precipitation---
Heating Degree Days1.9 (Base 18.3)
Growing Degree Days6.4 (Base 10)
Averaged from 50 records on 29 April, 2013
WEATHER CONDITIONS BREAKOUT
WIND DIRECTION BREAKOUT
WEATHER BY HOUR - 29 APRIL, 2013
[ °F ]   °C
Local TimeTemperatureDewpointHumidityBarometerVisibilityWind DirectionWind SpeedGust SpeedPrecipitationEventsConditions
12:23 AM7 °C6 °C93 %1013.2 hPa0.8 kmCalmFogFog
12:30 AM7 °C6 °C93 %1013.2 hPa0.3 kmCalmFogFog
12:38 AM7 °C6 °C93 %1013.2 hPa0.3 kmCalmFogFog
12:49 AM7 °C6 °C93 %1013.2 hPa0.3 kmCalmFogFog
12:54 AM7.2 °C6.1 °C93 %1013.5 hPa0.3 kmCalmFogFog
1:08 AM7 °C6 °C93 %1013.2 hPa0.3 kmCalmFogFog
1:25 AM6 °C6 °C100 %1013.2 hPa0.3 kmCalmFogFog
1:33 AM7 °C6 °C93 %1013.2 hPa0.8 kmCalmFogFog
1:54 AM6.7 °C5.6 °C93 %1012.9 hPa0.8 kmCalmFogFog
2:07 AM7 °C6 °C93 %1012.9 hPa0.3 kmCalmFogFog
2:40 AM6 °C6 °C100 %1012.5 hPa1.6 kmCalmMist
2:54 AM5.6 °C5 °C96 %1012.9 hPa1.6 kmCalmMist
2:58 AM6 °C5 °C93 %1012.5 hPa3.2 kmCalmScattered Clouds
3:03 AM6 °C4 °C87 %1012.5 hPa1.6 kmCalmMist
3:06 AM6 °C4 °C87 %1012.5 hPa0.8 kmCalmFogFog
3:16 AM6 °C4 °C87 %1012.5 hPa0.3 kmCalmFogFog
3:24 AM6 °C5 °C93 %1012.5 hPa1.3 kmCalmMist
3:46 AM6 °C4 °C87 %1012.5 hPa1.6 kmCalmMist
3:52 AM6 °C4 °C87 %1012.5 hPa3.2 kmCalmScattered Clouds
3:54 AM5.6 °C4.4 °C92 %1012.9 hPa4 kmCalmMostly Cloudy
3:59 AM6 °C5 °C93 %1012.5 hPa1.6 kmCalmMist
4:06 AM6 °C5 °C93 %1012.5 hPa0.3 kmCalmFogFog
4:15 AM6 °C4 °C87 %1012.5 hPa0.8 kmCalmFogFog
4:21 AM6 °C5 °C93 %1012.5 hPa1.9 kmCalmScattered Clouds
4:25 AM6 °C5 °C93 %1012.5 hPa6.4 kmCalmScattered Clouds
4:39 AM6 °C4 °C87 %1012.9 hPa2.9 kmCalmPartly Cloudy
4:54 AM5.6 °C4.4 °C92 %1012.9 hPa1.3 kmCalmMist
5:19 AM5 °C4 °C93 %1012.9 hPa1.6 kmCalmMist
5:26 AM6 °C4 °C87 %1012.9 hPa0.8 kmCalmFogFog
5:34 AM5 °C4 °C93 %1012.9 hPa1.9 kmCalmScattered Clouds
5:39 AM5 °C4 °C93 %1012.9 hPa1.3 kmCalmMist
5:54 AM5.6 °C5 °C96 %1013.2 hPa9.7 kmCalmPartly Cloudy
6:54 AM5.6 °C5 °C96 %1013.2 hPa9.7 kmCalmClear
7:54 AM11.1 °C9.4 °C89 %1013.9 hPa16.1 kmCalmClear
8:54 AM15 °C10.6 °C75 %1013.2 hPa16.1 kmCalmClear
9:54 AM17.8 °C11.7 °C67 %1012.9 hPa16.1 kmSSE (160°)9.3 km/hClear
10:54 AM20.6 °C12.8 °C61 %1012.5 hPa16.1 kmSSE (160°)7.4 km/hClear
11:54 AM22.8 °C13.9 °C57 %1011.9 hPa16.1 kmSE (130°)14.8 km/hClear
12:54 PM24.4 °C13.9 °C52 %1011.2 hPa16.1 kmSE (130°)9.3 km/hClear
1:54 PM26.1 °C13.9 °C47 %1009.8 hPa16.1 kmSSE (150°)18.5 km/h29.6 km/hClear
2:54 PM27.2 °C12.8 °C41 %1009.1 hPa16.1 kmSE (130°)13 km/h29.6 km/hClear
3:54 PM27.2 °C11.7 °C38 %1008.1 hPa16.1 kmSouth (180°)14.8 km/hClear
4:54 PM27.8 °C12.2 °C38 %1007.5 hPa16.1 kmSSE (160°)16.7 km/h29.6 km/hClear
5:54 PM27.2 °C12.8 °C41 %1007.5 hPa16.1 kmSSE (160°)14.8 km/hClear
6:54 PM26.1 °C13.9 °C47 %1007.5 hPa16.1 kmSE (140°)14.8 km/hClear
7:54 PM24.4 °C12.8 °C48 %1007.8 hPa16.1 kmSSE (150°)14.8 km/hClear
8:54 PM23.3 °C13.3 °C53 %1008.1 hPa16.1 kmSSE (160°)14.8 km/h25.9 km/hClear
9:54 PM22.2 °C13.9 °C59 %1008.5 hPa16.1 kmSouth (170°)16.7 km/hClear
10:54 PM21.7 °C14.4 °C63 %1008.1 hPa16.1 kmSouth (180°)18.5 km/h31.5 km/hClear
11:54 PM20.6 °C15 °C70 %1008.5 hPa16.1 kmSouth (180°)16.7 km/h27.8 km/hClear
Hourly data recorded from KSUS, located 0 kilometers away from St. Louis, Missouri







STORIES FROM OUR PARTNERS